DW1973 Weather Reports


Display with metric or nautical units.
time (UTC)temp
F
wind
direction
speed
MPH
gust
MPH
rain 1hr
in
rain 24hr
in
rain mn
in
humidity
%
barometer
mb
20260509122417 53 20 4.0 10.0 0.00 0.00 0.00 93 1004.1
20260509121925 52 19 5.0 10.0 0.00 0.00 0.00 93 1003.9
20260509121417 52 20 3.0 9.0 0.00 0.00 0.00 93 1003.9
20260509120925 52 21 3.0 9.0 0.00 0.00 0.00 94 1004.0
20260509120414 52 24 4.0 9.0 0.00 0.00 0.00 93 1004.0
20260509115927 52 19 4.0 9.0 0.00 0.00 0.00 94 1004.1
20260509115415 52 18 3.0 8.0 0.00 0.00 0.00 94 1004.1
20260509114917 52 20 3.0 8.0 0.00 0.00 0.00 94 1004.0
20260509114430 52 19 3.0 6.0 0.00 0.00 0.00 94 1004.1
20260509113937 52 18 3.0 9.0 0.00 0.00 0.00 94 1003.9
20260509113447 52 17 5.0 9.0 0.00 0.00 0.00 94 1003.8
20260509112920 52 18 3.0 8.0 0.00 0.00 0.00 94 1003.7
20260509112429 52 17 4.0 8.0 0.00 0.00 0.00 94 1003.7
20260509111916 52 17 3.0 6.0 0.00 0.00 0.00 94 1003.7
20260509111428 51 20 1.0 8.0 0.00 0.00 0.00 93 1003.7
20260509110937 52 17 4.0 8.0 0.00 0.00 0.00 94 1003.5
20260509110430 52 16 4.0 8.0 0.00 0.00 0.00 93 1003.4
20260509105922 52 18 4.0 9.0 0.00 0.00 0.00 93 1003.5
20260509105426 52 15 3.0 9.0 0.00 0.00 0.00 93 1003.5
20260509104914 52 15 5.0 10.0 0.00 0.00 0.00 94 1003.5
20260509104429 52 17 5.0 10.0 0.00 0.00 0.00 93 1003.4
20260509103916 52 17 4.0 9.0 0.00 0.00 0.00 93 1003.5
20260509103428 52 17 4.0 11.0 0.00 0.00 0.00 93 1003.5
20260509102919 52 16 5.0 13.0 0.00 0.00 0.00 93 1003.4
20260509102427 52 17 5.0 10.0 0.00 0.00 0.00 93 1003.5
20260509101915 52 17 6.0 10.0 0.00 0.00 0.00 93 1003.4
20260509101427 52 17 4.0 8.0 0.00 0.00 0.00 93 1003.5
20260509100918 52 17 4.0 8.0 0.00 0.00 0.00 93 1003.6
20260509100428 52 17 4.0 8.0 0.00 0.00 0.00 93 1003.7
20260509095940 52 16 3.0 6.0 0.00 0.00 0.00 93 1003.7
20260509095428 52 17 4.0 8.0 0.00 0.00 0.00 93 1003.7
20260509094918 52 17 4.0 8.0 0.00 0.00 0.00 93 1003.7
20260509094425 52 17 4.0 7.0 0.00 0.00 0.00 93 1003.8
20260509093914 52 15 4.0 6.0 0.00 0.00 0.00 92 1003.8
20260509093424 52 16 4.0 8.0 0.00 0.00 0.00 92 1003.8
20260509092934 52 16 3.0 7.0 0.00 0.00 0.00 92 1003.9
20260509092423 52 16 4.0 6.0 0.00 0.00 0.00 92 1004.1
20260509091930 52 17 2.0 5.0 0.00 0.00 0.00 92 1004.2
20260509091442 52 16 4.0 6.0 0.00 0.00 0.00 92 1004.0
20260509090926 52 15 4.0 6.0 0.00 0.00 0.00 92 1004.1
20260509090434 52 15 3.0 6.0 0.00 0.00 0.00 92 1004.2
20260509085925 52 15 3.0 9.0 0.00 0.00 0.00 91 1004.3
20260509085433 52 16 3.0 9.0 0.00 0.00 0.00 91 1004.2
20260509084919 52 16 3.0 6.0 0.00 0.00 0.00 91 1004.3
20260509084428 52 16 3.0 7.0 0.00 0.00 0.00 91 1004.4
20260509083935 52 17 4.0 5.0 0.00 0.00 0.00 91 1004.3
20260509083443 52 15 3.0 5.0 0.00 0.00 0.00 91 1004.3
20260509082945 52 15 3.0 5.0 0.00 0.00 0.00 91 1004.3
20260509082432 52 15 3.0 8.0 0.00 0.00 0.00 90 1004.3
20260509081919 52 15 3.0 5.0 0.00 0.00 0.00 90 1004.3
20260509081429 52 15 3.0 4.0 0.00 0.00 0.00 90 1004.4
20260509080917 52 16 2.0 4.0 0.00 0.00 0.00 90 1004.3
20260509080452 52 16 2.0 4.0 0.00 0.00 0.00 89 1004.1
20260509075924 52 15 2.0 6.0 0.00 0.00 0.00 89 1004.1
20260509075429 52 15 3.0 6.0 0.00 0.00 0.00 89 1004.3
20260509074919 52 15 2.0 6.0 0.00 0.00 0.00 89 1004.3
20260509074426 52 15 3.0 6.0 0.00 0.00 0.00 89 1004.4
20260509073934 52 16 2.0 5.0 0.00 0.00 0.00 88 1004.5
20260509073421 52 17 3.0 8.0 0.00 0.00 0.00 88 1004.5
20260509072932 52 16 3.0 9.0 0.00 0.00 0.00 88 1004.4
20260509072420 53 15 4.0 9.0 0.00 0.00 0.00 88 1004.4
20260509071929 53 15 3.0 8.0 0.00 0.00 0.00 88 1004.6
20260509071421 53 17 3.0 8.0 0.00 0.00 0.00 88 1004.7
20260509070926 53 15 3.0 5.0 0.00 0.00 0.00 88 1004.8
20260509070432 53 16 3.0 5.0 0.00 0.00 0.00 87 1004.9
20260509065920 53 17 2.0 5.0 0.00 0.00 0.00 87 1005.0
20260509065427 53 15 2.0 5.0 0.00 0.00 0.00 87 1005.0
20260509064917 53 16 1.0 4.0 0.00 0.00 0.00 87 1005.1
20260509064426 53 15 2.0 6.0 0.00 0.00 0.00 87 1005.0
20260509063934 53 15 3.0 6.0 0.00 0.00 0.00 86 1005.1
20260509063436 54 15 2.0 6.0 0.00 0.00 0.00 86 1005.1
20260509062945 54 15 3.0 6.0 0.00 0.00 0.00 86 1005.2
20260509062433 54 15 3.0 5.0 0.00 0.00 0.00 86 1005.2
20260509061919 54 15 3.0 5.0 0.00 0.00 0.00 86 1005.3
20260509061430 54 15 3.0 5.0 0.00 0.00 0.00 85 1005.4
20260509060918 54 13 2.0 5.0 0.00 0.00 0.00 85 1005.3
20260509060425 54 15 2.0 5.0 0.00 0.00 0.00 85 1005.4
20260509055936 55 15 3.0 8.0 0.00 0.00 0.00 85 1005.4
20260509055422 55 16 4.0 8.0 0.00 0.00 0.00 85 1005.6
20260509054929 55 15 2.0 8.0 0.00 0.00 0.00 85 1005.5
20260509054421 55 16 4.0 10.0 0.00 0.00 0.00 85 1005.5
20260509053929 55 15 3.0 10.0 0.00 0.00 0.00 85 1005.6
20260509053417 55 17 3.0 9.0 0.00 0.00 0.00 84 1005.7
20260509052924 55 15 4.0 8.0 0.00 0.00 0.00 84 1005.6
20260509052500 55 14 4.0 8.0 0.00 0.00 0.00 84 1005.6
20260509051948 56 15 3.0 6.0 0.00 0.00 0.00 84 1005.6
20260509051440 56 14 4.0 8.0 0.00 0.00 0.00 84 1005.6
20260509050949 56 15 5.0 8.0 0.00 0.00 0.00 84 1005.5
20260509050416 56 15 3.0 8.0 0.00 0.00 0.00 83 1005.6
20260509045919 56 15 3.0 8.0 0.00 0.00 0.00 83 1005.6
20260509045427 56 14 3.0 8.0 0.00 0.00 0.00 83 1005.6
20260509044918 56 15 4.0 8.0 0.00 0.00 0.00 82 1005.6
20260509044428 56 15 3.0 6.0 0.00 0.00 0.00 82 1005.6
20260509043916 56 15 4.0 8.0 0.00 0.00 0.00 82 1005.6
20260509043419 57 15 4.0 6.0 0.00 0.00 0.00 81 1005.7
20260509042948 57 15 4.0 8.0 0.00 0.00 0.00 81 1005.7
20260509042418 57 15 4.0 10.0 0.00 0.00 0.00 80 1005.7
20260509041928 57 15 3.0 10.0 0.00 0.00 0.00 79 1005.7
20260509041440 57 14 5.0 8.0 0.00 0.00 0.00 79 1005.7
20260509040949 57 15 4.0 8.0 0.00 0.00 0.00 78 1005.8
20260509040417 58 16 3.0 5.0 0.00 0.00 0.00 77 1005.9
20260509035929 58 15 3.0 10.0 0.00 0.00 0.00 77 1005.8
20260509035437 58 15 6.0 11.0 0.00 0.00 0.00 76 1006.0
20260509034925 58 15 5.0 11.0 0.00 0.00 0.00 76 1005.8
20260509034431 58 15 4.0 11.0 0.00 0.00 0.00 75 1005.9
20260509033917 58 15 5.0 11.0 0.00 0.00 0.00 74 1005.9
20260509033428 58 14 4.0 6.0 0.00 0.00 0.00 73 1005.9
20260509032940 58 15 3.0 6.0 0.00 0.00 0.00 73 1005.9
20260509032450 59 14 3.0 8.0 0.00 0.00 0.00 72 1006.0
20260509031915 59 15 4.0 6.0 0.00 0.00 0.00 73 1006.0
20260509031427 59 14 4.0 7.0 0.00 0.00 0.00 73 1005.9
20260509030916 59 15 4.0 8.0 0.00 0.00 0.00 73 1005.9
20260509030425 59 15 4.0 8.0 0.00 0.00 0.00 73 1006.0
20260509025917 59 15 4.0 9.0 0.00 0.00 0.00 73 1006.0
20260509025428 59 15 4.0 9.0 0.00 0.00 0.00 73 1006.0
20260509024916 60 16 4.0 6.0 0.00 0.00 0.00 72 1006.0
20260509024428 60 16 3.0 8.0 0.00 0.00 0.00 71 1006.0
20260509023917 60 17 4.0 9.0 0.00 0.00 0.00 71 1006.0
20260509023422 60 16 5.0 9.0 0.00 0.00 0.00 69 1006.0
20260509022933 60 17 4.0 8.0 0.00 0.00 0.00 68 1005.9
20260509022438 60 15 4.0 8.0 0.00 0.00 0.00 65 1006.0
20260509021926 61 16 3.0 8.0 0.00 0.00 0.00 62 1006.0
20260509021440 61 21 4.0 8.0 0.00 0.00 0.00 60 1006.0
20260509020931 61 20 3.0 6.0 0.00 0.00 0.00 59 1006.0
20260509020437 61 17 2.0 3.0 0.00 0.00 0.00 58 1005.9
20260509015929 61 22 2.0 3.0 0.00 0.00 0.00 58 1005.9
20260509015417 62 21 1.0 3.0 0.00 0.00 0.00 58 1005.8
20260509014927 62 26 2.0 3.0 0.00 0.00 0.00 58 1005.8
20260509014430 62 22 2.0 4.0 0.00 0.00 0.00 57 1005.7
20260509013919 62 24 2.0 4.0 0.00 0.00 0.00 57 1005.6
20260509013425 62 19 2.0 4.0 0.00 0.00 0.00 57 1005.7
20260509012934 63 21 2.0 6.0 0.00 0.00 0.00 57 1005.7
20260509012441 63 19 2.0 6.0 0.00 0.00 0.00 56 1005.6
20260509011949 63 18 2.0 5.0 0.00 0.00 0.00 56 1005.7
20260509011448 63 21 2.0 5.0 0.00 0.00 0.00 56 1005.6
20260509010917 63 44 2.0 4.0 0.00 0.00 0.00 55 1005.5
20260509010425 64 50 2.0 4.0 0.00 0.00 0.00 54 1005.6
20260509005916 64 44 2.0 5.0 0.00 0.00 0.00 53 1005.5
20260509005452 64 33 2.0 5.0 0.00 0.00 0.00 53 1005.5
20260509004919 64 30 2.0 4.0 0.00 0.00 0.00 53 1005.6
20260509004456 64 82 2.0 5.0 0.00 0.00 0.00 52 1005.5
20260509003923 65 360 2.0 8.0 0.00 0.00 0.00 52 1005.6
20260509003431 65 360 3.0 8.0 0.00 0.00 0.00 52 1005.6
20260509002924 65 44 2.0 6.0 0.00 0.00 0.00 52 1005.6
20260509002431 65 82 3.0 6.0 0.00 0.00 0.00 52 1005.6
20260509001918 64 67 2.0 6.0 0.00 0.00 0.00 53 1005.5
20260509001431 64 84 4.0 7.0 0.00 0.00 0.00 53 1005.6
20260509000940 64 76 2.0 4.0 0.00 0.00 0.00 54 1005.6
20260509000449 65 76 2.0 5.0 0.00 0.00 0.00 55 1005.6
20260508235940 65 30 2.0 5.0 0.00 0.00 0.00 54 1005.6
20260508235427 65 39 2.0 5.0 0.00 0.00 0.00 53 1005.6
20260508234917 65 36 3.0 6.0 0.00 0.00 0.00 52 1005.7
20260508234424 65 50 4.0 7.0 0.00 0.00 0.00 51 1005.6
20260508233935 65 55 3.0 7.0 0.00 0.00 0.00 51 1005.7
20260508233444 65 226 3.0 5.0 0.00 0.00 0.00 50 1005.8
20260508232931 66 188 2.0 7.0 0.00 0.00 0.00 50 1005.8
20260508232419 66 236 3.0 7.0 0.00 0.00 0.00 49 1005.8
20260508231925 66 235 4.0 8.0 0.00 0.00 0.00 51 1005.8
20260508231416 66 201 4.0 8.0 0.00 0.00 0.00 51 1005.7
20260508230923 66 175 3.0 9.0 0.00 0.00 0.00 50 1005.7
20260508230432 66 209 4.0 9.0 0.00 0.00 0.00 51 1005.8
20260508225943 66 196 4.0 9.0 0.00 0.00 0.00 50 1005.8
20260508225449 66 219 4.0 6.0 0.00 0.00 0.00 50 1005.9
20260508224916 66 186 2.0 6.0 0.00 0.00 0.00 52 1005.9
20260508224422 66 205 3.0 9.0 0.00 0.00 0.00 51 1005.9
20260508223931 66 205 5.0 9.0 0.00 0.00 0.00 51 1006.1
20260508223418 66 205 2.0 8.0 0.00 0.00 0.00 51 1006.1
20260508222949 66 203 4.0 8.0 0.00 0.00 0.00 52 1006.2
20260508222419 66 200 3.0 7.0 0.00 0.00 0.00 52 1006.0
20260508221926 66 188 3.0 7.0 0.00 0.00 0.00 52 1005.9
20260508221436 66 235 2.0 8.0 0.00 0.00 0.00 53 1006.1
20260508220922 66 221 2.0 8.0 0.00 0.00 0.00 53 1006.1
20260508220431 66 158 3.0 9.0 0.00 0.00 0.00 51 1006.2
20260508215923 66 213 3.0 10.0 0.00 0.00 0.00 51 1006.2
20260508215412 66 208 2.0 6.0 0.00 0.00 0.00 51 1006.3
20260508214919 66 183 3.0 9.0 0.00 0.00 0.00 51 1006.2
20260508214412 67 195 4.0 9.0 0.00 0.00 0.00 50 1006.3
20260508213918 66 217 2.0 8.0 0.00 0.00 0.00 52 1006.4
20260508213427 66 224 4.0 8.0 0.00 0.00 0.00 50 1006.4
20260508212937 66 207 4.0 7.0 0.00 0.00 0.00 51 1006.4
20260508212445 65 194 3.0 8.0 0.00 0.00 0.00 52 1006.4
20260508211912 65 185 4.0 8.0 0.00 0.00 0.00 51 1006.4
20260508211424 65 202 3.0 7.0 0.00 0.00 0.00 51 1006.4
20260508210914 65 218 3.0 8.0 0.00 0.00 0.00 49 1006.4
20260508210452 66 220 5.0 10.0 0.00 0.00 0.00 48 1006.5
20260508205949 66 138 5.0 10.0 0.00 0.00 0.00 49 1006.4
20260508205435 66 185 5.0 8.0 0.00 0.00 0.00 48 1006.4
20260508204942 67 128 4.0 8.0 0.00 0.00 0.00 49 1006.4
20260508204431 66 192 4.0 8.0 0.00 0.00 0.00 48 1006.4
20260508203921 66 202 4.0 9.0 0.00 0.00 0.00 48 1006.4
20260508203428 66 132 5.0 9.0 0.00 0.00 0.00 48 1006.5
20260508202920 66 225 3.0 9.0 0.00 0.00 0.00 49 1006.6
20260508202427 66 144 3.0 9.0 0.00 0.00 0.00 48 1006.6
20260508201914 66 192 4.0 8.0 0.00 0.00 0.00 46 1006.7
20260508201424 66 194 4.0 8.0 0.00 0.00 0.00 47 1006.8
20260508200913 66 206 5.0 8.0 0.00 0.00 0.00 46 1006.9
20260508200421 66 204 3.0 6.0 0.00 0.00 0.00 48 1007.0
20260508195932 65 175 2.0 4.0 0.00 0.00 0.00 47 1007.0
20260508195420 65 159 1.0 7.0 0.00 0.00 0.00 46 1007.3
20260508194930 65 192 3.0 8.0 0.00 0.00 0.00 47 1007.5
20260508194438 66 211 4.0 8.0 0.00 0.00 0.00 47 1007.3
20260508193949 66 193 4.0 7.0 0.00 0.00 0.00 53 1007.4
20260508193415 65 118 2.0 7.0 0.00 0.00 0.00 49 1007.4
20260508192952 65 178 1.0 4.0 0.00 0.00 0.00 50 1007.6
20260508192418 64 177 2.0 6.0 0.00 0.00 0.00 49 1007.6
20260508191926 65 209 2.0 5.0 0.00 0.00 0.00 50 1007.7
20260508191436 65 210 3.0 5.0 0.00 0.00 0.00 51 1007.7
20260508190923 65 185 1.0 3.0 0.00 0.00 0.00 51 1007.8
20260508190431 65 159 1.0 10.0 0.00 0.00 0.00 51 1007.8
20260508185942 65 159 4.0 10.0 0.00 0.00 0.00 51 1007.9
20260508185429 65 213 3.0 7.0 0.00 0.00 0.00 52 1007.9
20260508184919 65 159 5.0 7.0 0.00 0.00 0.00 50 1008.0
20260508184445 64 184 3.0 7.0 0.00 0.00 0.00 49 1008.0
20260508183932 64 210 2.0 7.0 0.00 0.00 0.00 50 1008.0
20260508183440 64 206 1.0 7.0 0.00 0.00 0.00 55 1008.1
20260508182928 64 200 2.0 7.0 0.00 0.00 0.00 55 1008.1
20260508182416 64 283 2.0 5.0 0.00 0.00 0.00 55 1008.2
20260508181925 64 207 3.0 5.0 0.00 0.00 0.00 58 1008.3
20260508181415 64 218 1.0 6.0 0.00 0.00 0.00 58 1008.4
20260508180924 64 218 4.0 7.0 0.00 0.00 0.00 57 1008.3
20260508180433 64 191 4.0 7.0 0.00 0.00 0.00 57 1008.3
20260508175951 63 182 1.0 6.0 0.00 0.00 0.00 59 1008.4
20260508175433 63 207 2.0 6.0 0.00 0.00 0.00 63 1008.6
20260508174941 63 198 3.0 7.0 0.00 0.00 0.00 62 1008.8
20260508174425 62 250 3.0 8.0 0.00 0.00 0.00 65 1008.9
20260508173914 62 157 2.0 8.0 0.00 0.00 0.00 64 1009.0
20260508173422 62 38 4.0 7.0 0.00 0.00 0.00 64 1009.0
20260508172932 63 198 4.0 7.0 0.00 0.00 0.00 65 1009.1
20260508172440 62 207 1.0 8.0 0.00 0.00 0.00 64 1009.1
20260508171926 62 191 3.0 8.0 0.00 0.00 0.00 65 1009.4
20260508171418 62 116 5.0 7.0 0.00 0.00 0.00 65 1009.4
20260508170927 62 134 2.0 6.0 0.00 0.00 0.00 63 1009.5
20260508170414 62 214 2.0 6.0 0.00 0.00 0.00 64 1009.5
20260508165945 62 217 1.0 5.0 0.00 0.00 0.00 66 1009.5
20260508165432 62 218 2.0 5.0 0.00 0.00 0.00 66 1009.6
20260508164941 61 213 1.0 6.0 0.00 0.00 0.00 68 1009.7
20260508164424 61 215 3.0 6.0 0.00 0.00 0.00 67 1009.7
20260508163931 61 215 1.0 6.0 0.00 0.00 0.00 68 1009.8
20260508163441 61 216 3.0 6.0 0.00 0.00 0.00 67 1010.0
20260508162921 61 214 3.0 5.0 0.00 0.00 0.00 67 1010.0
20260508162427 60 155 2.0 10.0 0.00 0.00 0.00 68 1010.1
20260508161914 60 205 4.0 10.0 0.00 0.00 0.00 67 1010.2
20260508161427 60 54 1.0 8.0 0.00 0.00 0.00 68 1010.2
20260508160917 60 116 3.0 7.0 0.00 0.00 0.00 69 1010.1
20260508160453 60 131 1.0 7.0 0.00 0.00 0.00 69 1010.1
20260508155939 60 360 1.0 5.0 0.00 0.00 0.00 71 1010.1
20260508155424 59 203 1.0 7.0 0.00 0.00 0.00 70 1010.3
20260508154914 59 191 4.0 7.0 0.00 0.00 0.00 70 1010.3
20260508154426 59 220 1.0 4.0 0.00 0.00 0.00 72 1010.3
20260508153913 59 205 2.0 7.0 0.00 0.00 0.00 71 1010.3
20260508153446 58 199 3.0 7.0 0.00 0.00 0.00 70 1010.4
20260508152916 58 208 1.0 7.0 0.00 0.00 0.00 71 1010.4
20260508152451 58 213 2.0 4.0 0.00 0.00 0.00 71 1010.4
20260508151919 58 187 1.0 6.0 0.00 0.00 0.00 73 1010.5
20260508151428 58 223 2.0 6.0 0.00 0.00 0.00 74 1010.4
20260508150918 58 207 2.0 6.0 0.00 0.00 0.00 74 1010.6
20260508150425 57 200 1.0 6.0 0.00 0.00 0.00 75 1010.6
20260508145919 57 200 2.0 6.0 0.00 0.00 0.00 74 1010.6
20260508145428 57 196 4.0 6.0 0.00 0.00 0.00 73 1010.8
20260508144915 57 186 3.0 5.0 0.00 0.00 0.00 74 1010.6
20260508144421 57 184 1.0 3.0 0.00 0.00 0.00 73 1010.8
20260508143927 57 180 1.0 4.0 0.00 0.00 0.00 73 1010.8
20260508143417 57 171 2.0 4.0 0.00 0.00 0.00 73 1010.8
20260508142929 56 178 0.0 3.0 0.00 0.00 0.00 75 1010.8
20260508142438 56 178 0.0 3.0 0.00 0.00 0.00 75 1010.9
20260508141944 55 180 0.0 3.0 0.00 0.00 0.00 77 1010.9
20260508141414 55 181 1.0 3.0 0.00 0.00 0.00 76 1010.9
20260508140921 54 181 0.0 2.0 0.00 0.00 0.00 78 1010.9
20260508140430 53 31 0.0 3.0 0.00 0.00 0.00 78 1010.9
20260508135942 53 19 2.0 4.0 0.00 0.00 0.00 79 1010.9
20260508135453 52 15 1.0 5.0 0.00 0.00 0.00 79 1010.9
20260508134939 52 13 2.0 5.0 0.00 0.00 0.00 79 1011.0
20260508134428 52 13 2.0 5.0 0.00 0.00 0.00 78 1011.1
20260508133917 51 14 2.0 4.0 0.00 0.00 0.00 79 1010.9
20260508133425 51 13 2.0 4.0 0.00 0.00 0.00 81 1010.9
20260508132916 50 12 3.0 4.0 0.00 0.00 0.00 83 1010.9
20260508132423 49 11 1.0 4.0 0.00 0.00 0.00 86 1010.8
20260508131932 49 12 3.0 4.0 0.00 0.00 0.00 84 1010.9
20260508131423 49 13 2.0 3.0 0.00 0.00 0.00 88 1010.9
20260508130931 48 13 1.0 3.0 0.00 0.00 0.00 89 1010.9
20260508130419 48 14 1.0 2.0 0.00 0.00 0.00 90 1010.9
20260508125932 48 14 0.0 1.0 0.00 0.00 0.00 91 1011.0
20260508125437 47 14 0.0 2.0 0.00 0.00 0.00 91 1011.0
20260508124945 47 15 1.0 2.0 0.00 0.00 0.00 91 1010.6
20260508124416 46 18 0.0 1.0 0.00 0.00 0.00 92 1010.6
20260508123926 46 16 0.0 1.0 0.00 0.00 0.00 91 1010.8
20260508123414 46 16 0.0 2.0 0.00 0.00 0.00 91 1011.0
20260508122943 46 17 0.0 2.0 0.00 0.00 0.00 92 1011.1